Location: Gebenbach
(49.5378°N, 11.8735°E)
Time: 12:11:44
(UTC+00:00)

ATLAS 5 CENTAUR R/B - Pass Details

Date: 29 October 2020
Orbit: 531 x 1127 km, 63.4° (Epoch: 22 November)

Event Time Altitude Azimuth Distance (km) Brightness Sun altitude
Rises 16:23:55 0° 271° (W) 2,803 6.7 -5.3°
Reaches altitude 10° 16:26:28 10° 288° (WNW) 1,974 5.2 -5.7°
Maximum altitude 16:29:58 22° 340° (NNW) 1,438 3.5 -6.3°
Drops below altitude 10° 16:33:54 10° 31° (NNE) 2,234 4.0 -6.9°
Enters shadow 16:35:59 - 43° (NE) 2,924 4.5 -7.2°
